Location: Dine Sky Observatory
(36.3696°N, 109.6234°W)
Time: 03:58:25
(UTC-06:00)

Hubble Space Telescope - Visible Passes

Search period start: 19 April 2018 00:00
Search period end: 29 April 2018 00:00
Orbit: 537 x 541 km, 28.5° (Epoch: 18 April)

Date Brightness Start Highest point End Pass type
(mag) Time Alt. Az. Time Alt. Az. Time Alt. Az.
19 Apr 2.8 05:01:47 15° S 05:01:47 15° S 05:03:13 10° SSE visible
24 Apr 3.0 21:13:59 10° S 21:14:24 11° S 21:14:24 11° S visible
25 Apr 2.7 21:02:46 10° SSW 21:04:54 14° SSE 21:05:16 14° SSE visible
26 Apr 2.6 20:51:53 10° SSW 20:54:28 16° SSE 20:56:00 14° SE visible
27 Apr 2.4 20:41:10 10° SSW 20:44:03 18° SSE 20:46:35 12° SE visible
27 Apr 3.2 22:21:14 10° WSW 22:21:58 14° SW 22:21:58 14° SW visible
28 Apr 2.3 20:30:32 10° SW 20:33:39 21° SSE 20:36:47 10° ESE visible
28 Apr 2.7 22:10:51 10° WSW 22:12:27 19° SW 22:12:27 19° SW visible
